Weather Roundup
Issued by NWS Springfield, MO

Home | Current Version | Previous Version | Text Only | Print | Product List | Glossary On
Versions: 1 2 3 4 5 6 7 8 9 10 11 12 13 14 15 16 17 18 19 20 21 22 23 24 25 26 27 28 29 30 31 32 33 34 35 36 37 38 39 40 41 42 43 44 45 46 47 48 49 50
000
NZUS99 KSGF 240657
HRRSGF

HOURLY WEATHER
NATIONAL WEATHER SERVICE SPRINGFIELD MO
200 AM CDT SUN JUL 24 2016

......SGF CWA......

CITY           SKY/WX    TMP DP  RH WIND       PRES   REMARKS
SPRINGFIELD    CLEAR     81  74  79 S9        29.95S
JOPLIN         CLEAR     80  74  81 S9        29.93S
WEST PLAINS    PTCLDY    75  70  84 W3        29.99F
ROLLA          CLEAR     79  74  84 S9        29.95S

......SURROUNDING SGF CWA......

CITY           SKY/WX    TMP DP  RH WIND       PRES   REMARKS
CHANUTE        CLEAR     78  71  79 S7        29.89F
PARSONS        CLEAR     80  71  74 S3        29.90F
COFFEYVILLE    CLEAR     80  72  76 S7        29.89F
EMPORIA        MOCLDY    82  70  66 S12       29.88S
HARRISON AR    PTCLDY    75  70  84 SE5       29.98S

......KANSAS AND MISSOURI......

CITY           SKY/WX    TMP DP  RH WIND       PRES   REMARKS
KANSAS CTY INT CLOUDY    82  71  69 S10       29.87F
SEDALIA        CLOUDY    82  76  81 S5        29.92F
ST JOSEPH      PTCLDY    83  72  69 S8        29.85S
ST LOUIS       PTCLDY    84  74  71 S7        29.94F HX  91
WICHITA        CLOUDY    83  67  58 S9        29.89R
TOPEKA         CLOUDY    85  69  58 S9        29.85S
OLATHE         CLOUDY    80  72  76 MISG      29.89F

......TENNESSEE......

CITY           SKY/WX    TMP DP  RH WIND       PRES   REMARKS
MEMPHIS        NOT AVBL
NASHVILLE      PTCLDY    74  70  87 S3        30.00S

......ARKANSAS.......

CITY           SKY/WX    TMP DP  RH WIND       PRES   REMARKS
FAYETTEVILLE   CLEAR     76  72  87 S5        29.97S
FT SMITH       CLEAR     80  71  74 CALM      29.92F
LITTLE ROCK    CLOUDY    77  71  82 CALM      29.94S

......OKLAHOMA.......

CITY           SKY/WX    TMP DP  RH WIND       PRES   REMARKS
TULSA          CLEAR     86  72  62 S10       29.90S HX  92
PONCA CITY     MOCLDY    85  69  58 S10G21    29.88F
MCALESTER      CLEAR     79  70  74 SW3       29.95R
OKLAHOMA CITY  PTCLDY    77  69  76 S6        29.92F

......IOWA............

CITY           SKY/WX    TMP DP  RH WIND       PRES   REMARKS
DES MOINES     NOT AVBL

......ILLINOIS........

CITY           SKY/WX    TMP DP  RH WIND       PRES   REMARKS
QUINCY         NOT AVBL
CHICAGO        CLOUDY    72  70  93 S8        29.94F



USA.gov is the U.S. government's official web portal to all federal, state and local government web resources and services.